Regional Weather Roundup
Issued by NWS

Home | Current Version | Previous Version | Text Only | Print | Product List | Glossary On
Versions: 1 2 3 4 5 6 7 8 9 10 11 12 13 14 15 16 17 18 19 20 21 22 23 24 25 26 27 28 29 30 31 32 33 34 35 36 37 38 39 40 41 42 43 44 45 46 47 48 49 50
000
ASUS43 KDTX 230010
RWRMI
MICHIGAN HOURLY REGIONAL WEATHER ROUNDUP
NATIONAL WEATHER SERVICE DETROIT/PONTIAC MI
700 PM EST WED FEB 22 2017

NOTE: "FAIR" INDICATES FEW OR NO CLOUDS BELOW 12,000 FEET WITH NO
SIGNIFICANT WEATHER AND/OR OBSTRUCTION TO VISIBILITY.

MIZ047>049-052>055-059>063-066>070-074>076-081>083-230100-
SOUTHEAST LOWER MICHIGAN

CITY           SKY/WX    TMP DP  RH WIND       PRES   REMARKS
ADRIAN         CLOUDY    58  53  84 SW7       29.76R
6HR MIN TEMP:  58; 6HR MAX TEMP:  63;

ALMA           CLEAR     57  52  84 S14G20    29.65F
ANN ARBOR      CLOUDY    59  53  80 S10       29.73S
BAD AXE        CLEAR     55  49  80 S12       29.67R
6HR MIN TEMP:  55; 6HR MAX TEMP:  63;

CARO           CLEAR     56  51  83 S10       29.67S
DETROIT CITY   CLOUDY    58  54  86 S13       29.74S
6HR MIN TEMP:  58; 6HR MAX TEMP:  62;

DETROIT        CLOUDY    60  53  77 S10       29.75S
6HR MIN TEMP:  60; 6HR MAX TEMP:  65;

FLINT          CLEAR     57  51  80 S9        29.70S
6HR MIN TEMP:  57; 6HR MAX TEMP:  63;

GROSSE ILE     CLOUDY    48  48  99 S14       29.74S FOG
6HR MIN TEMP:  45; 6HR MAX TEMP:  54;

HILLSDALE      CLOUDY    55  50  82 S5        29.74S
HOWELL         CLOUDY    57  50  77 S8        29.71S
6HR MIN TEMP:  57; 6HR MAX TEMP:  61;


CITY           SKY/WX    TMP DP  RH WIND       PRES   REMARKS
JACKSON        CLOUDY    59  51  75 S8        29.72F
6HR MIN TEMP:  59; 6HR MAX TEMP:  61;

LAMBERTVILLE   CLOUDY    61  54  76 S3        29.75S
6HR MIN TEMP:  61; 6HR MAX TEMP:  65;

LANSING        PTCLDY    57  51  80 S10       29.69F
6HR MIN TEMP:  57; 6HR MAX TEMP:  62;

LAPEER         FAIR      56  50  81 S8        29.71S
6HR MIN TEMP:  56; 6HR MAX TEMP:  63;

MASON          CLOUDY    57  52  83 S3        29.71S
MONROE         CLOUDY    59  55  85 S14G20    29.75R
MT. CLEMENS    PTCLDY    52  52 100 S9        29.72S FOG
6HR MIN TEMP:  52; 6HR MAX TEMP:  64;

PONTIAC        MOCLDY    58  51  78 S6        29.71S
6HR MIN TEMP:  58; 6HR MAX TEMP:  60;

PORT HOPE        N/A     59  51  75 VRB7      29.64S
6HR MIN TEMP:  41; 6HR MAX TEMP:  64;

PORT HURON     CLOUDY    57  54  88 S12       29.73S
TRI CITIES     CLEAR     57  52  83 S10       29.66S
6HR MIN TEMP:  57; 6HR MAX TEMP:  64;

MIDLAND        FAIR      58  49  73 S12       29.63F
6HR MIN TEMP:  54; 6HR MAX TEMP:  64;

TROY           CLOUDY    60  53  76 S6        29.75S
SAGINAW HB     CLEAR     57  50  77 S10       29.66S
$$
MIZ043>046-050>051-056>058-064>065-071>073-077>080-230100-
SOUTHWEST LOWER MICHIGAN

CITY           SKY/WX    TMP DP  RH WIND       PRES   REMARKS
BATTLE CREEK   MOCLDY    58  52  80 S14       29.70F
6HR MIN TEMP:  58; 6HR MAX TEMP:  61;

BENTON HARBOR  CLEAR     59  53  80 SE7       29.66F
6HR MIN TEMP:  59; 6HR MAX TEMP:  64;

BIG RAPIDS     PTCLDY    58  50  73 S13G18    29.59F
6HR MIN TEMP:  54; 6HR MAX TEMP:  60;

COLDWATER      CLOUDY    59  53  81 S5        29.73S
6HR MIN TEMP:  59; 6HR MAX TEMP:  62;

FREMONT        FAIR      56  52  86 S14       29.60F
HOLLAND        CLEAR     59  53  80 S14       29.64F
6HR MIN TEMP:  56; 6HR MAX TEMP:  65;

GRAND RAPIDS   MOCLDY    59  51  75 S10       29.65F
6HR MIN TEMP:  59; 6HR MAX TEMP:  66;

IONIA          FAIR      56  50  80 S13       29.65F
6HR MIN TEMP:  56; 6HR MAX TEMP:  63;

KALAMAZOO      PTCLDY    58  50  75 S13       29.70F
6HR MIN TEMP:  58; 6HR MAX TEMP:  63;

LUDINGTON      CLOUDY    55  52  91 S6        29.57S FOG
6HR MIN TEMP:  53; 6HR MAX TEMP:  55;

MARSHALL       CLOUDY    59  54  82 SW3       29.71S
6HR MIN TEMP:  58; 6HR MAX TEMP:  61;

MOUNT PLEASANT CLEAR     57  52  83 S10       29.62F
6HR MIN TEMP:  55; 6HR MAX TEMP:  64;

MUSKEGON       MOCLDY    56  52  86 S16G25    29.61F
6HR MIN TEMP:  51; 6HR MAX TEMP:  56;

SOUTH HAVEN    CLEAR     58  54  84 S9        29.66F
$$
MIZ016>042-230100-
NORTHERN LOWER MICHIGAN

CITY           SKY/WX    TMP DP  RH WIND       PRES   REMARKS
ALPENA         MOCLDY    55  50  83 SW7       29.59R
6HR MIN TEMP:  55; 6HR MAX TEMP:  61; 6HR PCP: TRACE;

BEAVER ISLAND  FOG       42  42 100 W7        29.62R VSB 1/4
6HR MIN TEMP:  41; 6HR MAX TEMP:  46;

BELLAIRE       CLOUDY    55  47  74 CALM      29.59R
6HR MIN TEMP:  55; 6HR MAX TEMP:  63;

CADILLAC       PTCLDY    54  51  90 SW7       29.58S
CHARLEVOIX     FOG       43  43 100 N6        29.64R VSB 1/4
FRANKFORT      CLOUDY    52  48  87 W7        29.57S
GAYLORD        MOCLDY    51  44  77 SW8       29.60R
6HR MIN TEMP:  51; 6HR MAX TEMP:  59;

GRAYLING       CLOUDY    53  49  88 NW6       29.59R
6HR MIN TEMP:  53; 6HR MAX TEMP:  62;

HARBOR SPRINGS CLOUDY    45  43  95 CALM      29.62R
HOUGHTON LAKE  PTCLDY    51  47  86 SE5       29.59F
6HR MIN TEMP:  51; 6HR MAX TEMP:  58;

MANISTEE       CLOUDY    55  51  86 S8        29.57S
OSCODA         PTCLDY    56  51  84 SW12G22   29.60F
6HR MIN TEMP:  53; 6HR MAX TEMP:  57;

PELLSTON       FOG       42  40  92 N5        29.62R VSB 1/4
6HR MIN TEMP:  42; 6HR MAX TEMP:  59;

ROGERS CITY    PTCLDY    46  42  83 W6        29.60R
TRAVERSE CITY  CLOUDY    59  48  67 VRB3      29.56R
6HR MIN TEMP:  59; 6HR MAX TEMP:  66;

$$
MIZ007>008-015-230100-
EASTERN UPPER MICHIGAN

CITY           SKY/WX    TMP DP  RH WIND       PRES   REMARKS
KINROSS        LGT RAIN  43  43 100 S3        29.60R FOG
6HR MIN TEMP:  41; 6HR MAX TEMP:  48; 6HR PCP: TRACE;

MACKINAC ISLAN CLOUDY    43  43 100 CALM      29.60F
6HR MIN TEMP:  42; 6HR MAX TEMP:  45;

NEWBERRY       MOCLDY    36  36 100 CALM      29.60R
S. S. MARIE    LGT RAIN  40  38  93 CALM      29.59R FOG
6HR MIN TEMP:  40; 6HR MAX TEMP:  47; 6HR PCP:  0.02;

MUNISING         N/A     35  34  96 NE6       29.60F WCI  30
6HR MIN TEMP:  34; 6HR MAX TEMP:  46; 6HR PCP:  0.03;

$$
MIZ004>006-011>014-085-230100-
CENTRAL UPPER MICHIGAN

CITY           SKY/WX    TMP DP  RH WIND       PRES   REMARKS
MANISTIQUE     MOCLDY    40  39  97 N3        29.59R
6HR MIN TEMP:  37; 6HR MAX TEMP:  43;

ESCANABA       LGT RAIN  41  38  89 N8        29.56F
6HR MIN TEMP:  41; 6HR MAX TEMP:  47; 6HR PCP: TRACE;

MENOMINEE      CLOUDY    41  38  89 SE6       29.56F
6HR MIN TEMP:  41; 6HR MAX TEMP:  58;

SAWYER-GWINN   FOG       36  34  93 NE8       29.59F VSB 1   WCI  29
$$
MIZ001>003-009>011-084-230100-
WESTERN UPPER MICHIGAN

CITY           SKY/WX    TMP DP  RH WIND       PRES   REMARKS
IRON MOUNTAIN  CLOUDY    46  39  76 CALM      29.53F
6HR MIN TEMP:  44; 6HR MAX TEMP:  54; 6HR PCP: TRACE;

HOUGHTON       MOCLDY    37  30  75 NE6       29.60R WCI  32
6HR MIN TEMP:  37; 6HR MAX TEMP:  43; 6HR PCP: TRACE;

COPPER HARBOR    N/A     37  33  85 N8        29.62S WCI  31
6HR MIN TEMP:  36; 6HR MAX TEMP:  37;

IRONWOOD       CLOUDY    40  34  79 N3        29.58R
6HR MIN TEMP:  39; 6HR MAX TEMP:  48; 6HR PCP: TRACE;

$$

ABBREVIATIONS USED IN REMARKS
   TC - TEMPERATURE IN CELSIUS
  WCI - WIND CHILL INDEX
   HX - HEAT INDEX
  VSB - VISIBILITY





USA.gov is the U.S. government's official web portal to all federal, state and local government web resources and services.